Погода в Деме

Россия / Оренбургская область     53°06′22″N   54°25′34″E
темп.,
°C
ветер,
м/с
пор.,
м/с
влажн.,
%
обл.,
%
осадки,
мм/ч
давл.,
гПа
погр.,
м
18 апреля, вс
вс1823:00+12св510660 0.0 1019249
02:00+9св37630 0.0 1018128
05:00+7ссв36670 0.0 101892
08:00+8ссв37590 0.0 1018212
11:00+13св55400 0.0 1017517
14:00+15св55348 0.0 10171012
17:00+15св66335 0.0 10171279
20:00+12св6104420 0.0 1018451
19 апреля, пн
пн1923:00+8св6126716 0.0 1019397
02:00+6в813740 0.0 1020519
05:00+4в8146522 0.0 1022540
08:00+3в9146499 0.0 1023695
11:00+2в101359100 0.0 1025787
14:00+4вюв81061100 0.0 1026990
17:00+8вюв8939100 0.0 10251492
20:00+6в71039100 0.0 1026813
20 апреля, вт
вт2023:00+3вюв713416 0.0 1029590
02:000в712440 0.0 1030553
05:00−1в612460 0.0 1032555
08:000в811420 0.0 1033785
11:00+3вюв89300 0.0 10331072
14:00+6вюв78260 0.0 10321319
17:00+8вюв67250 0.0 10311443
20:00+6вюв46340 0.0 1031133
21 апреля, ср
ср2123:00+3юв36440 0.0 1032101
02:00+2юв385127 0.0 1032165
05:000вюв35555 0.0 103274
08:00+2юв494658 0.0 1033394
11:00+6юв793266 0.0 1032750
14:00+10юв7827100 0.0 10311151
17:00+11ююв792795 0.0 10301382
20:00+9ююв51036100 0.0 1030298
22 апреля, чт
чт2223:00+7юв61344100 0.0 1031385
02:00+5ююв61352100 0.0 1032364
05:00+5ююв51155100 0.0 1032373
08:00+5ююв61255100 0.0 1033452
11:00+8ююв71044100 0.0 1033731
14:00+10ююв7937100 0.0 10331119
17:00+12ююв7932100 0.0 10321745
20:00+11юв4844100 0.0 1031200